This demonstration page uses our WeatherBlox Daily Observations layout. Learn more.

Left ArrowRight Arrow

34.16533, -84.80231

Hourly Observations for December 7, 2017

Temp ( °F °C ) Dew Point ( °F °C ) Humidity (%) Winds ( mph kmh ) Pressure ( in mb ) Visibility ( mi km ) Precip ( " mm )
12:53 am 00:53 Cloudy 40 4.4 31 -0.6 70 70 Calm 30.18 1022 10 16 0.00 0.00
1:53 am 01:53 Mostly Cloudy 40 4.4 32 0 73 73 Calm 30.18 1022 10 16 0.00 0.00
2:53 am 02:53 Partly Cloudy 40 4.4 33 0.6 77 77 Calm 30.18 1022 10 16 0.00 0.00
3:53 am 03:53 Cloudy 40 4.4 34 1.1 79 79 Calm 30.18 1022 10 16 0.00 0.00
4:53 am 04:53 Cloudy 40 4.4 34 1.1 79 79 Calm 30.16 1021 10 16 0.00 0.00
5:53 am 05:53 Mostly Cloudy 40 4.4 35 1.7 83 83 Calm 30.18 1022 10 16 0.00 0.00
6:53 am 06:53 Mostly Cloudy 40 4.4 34 1.1 79 79 Calm 30.18 1022 10 16 0.00 0.00
7:53 am 07:53 Mostly Cloudy 40 4.4 35 1.7 83 83 Calm 30.19 1022 10 16 0.00 0.00
8:53 am 08:53 Partly Cloudy 41 5 35 1.7 79 79 Calm 30.20 1023 10 16 0.00 0.00
9:53 am 09:53 Sunny 42 5.6 32 0 68 68 Calm 30.21 1023 10 16 0.00 0.00
10:53 am 10:53 Sunny 44 6.7 33 0.6 65 65 Calm 30.21 1023 10 16 0.00 0.00
11:53 am 11:53 Sunny 46 7.8 30 -1.1 54 54 Calm 30.19 1022 10 16 0.00 0.00
12:53 pm 12:53 Sunny 47 8.3 31 -0.6 54 54 WNW 3 6 30.16 1021 10 16 0.00 0.00
1:53 pm 13:53 Sunny 49 9.4 31 -0.6 50 50 VRB 3 6 30.13 1020 10 16 0.00 0.00
2:53 pm 14:53 Sunny 50 10 30 -1.1 46 46 Calm 30.12 1020 10 16 0.00 0.00
3:53 pm 15:53 Sunny 49 9.4 28 -2.2 44 44 Calm 30.11 1020 10 16 0.00 0.00
4:53 pm 16:53 Sunny 47 8.3 30 -1.1 52 52 Calm 30.13 1020 10 16 0.00 0.00
5:53 pm 17:53 Clear 45 7.2 34 1.1 66 66 Calm 30.12 1020 10 16 0.00 0.00
6:53 pm 18:53 Clear 43 6.1 36 2.2 76 76 Calm 30.12 1020 10 16 0.00 0.00
7:53 pm 19:53 Clear 41 5 36 2.2 82 82 Calm 30.13 1020 10 16 0.00 0.00
8:53 pm 20:53 Partly Cloudy 42 5.6 36 2.2 79 79 Calm 30.12 1020 10 16 0.00 0.00
9:53 pm 21:53 Cloudy 42 5.6 36 2.2 79 79 Calm 30.12 1020 10 16 0.00 0.00
10:53 pm 22:53 Cloudy 43 6.1 34 1.1 71 71 Calm 30.11 1020 10 16 0.00 0.00
11:53 pm 23:53 Cloudy 43 6.1 30 -1.1 60 60 NNW 3 6 30.11 1020 10 16 0.00 0.00

Powered by AerisWeather